Location: Peebles
(55.6412°N, 3.1714°W)
Time: 20:48:49
(UTC+01:00)

Vanguard 1 Rocket - Visible Passes

Search period start: 02 October 2022 00:00
Search period end: 12 October 2022 00:00
Orbit: 651 x 4225 km, 34.3° (Epoch: 02 October)

Date Brightness Start Highest point End Pass type
(mag) Time Alt. Az. Time Alt. Az. Time Alt. Az.
02 Oct 10.1 20:57:23 10° SSW 21:10:27 24° S 21:14:23 21° SSE visible
02 Oct 10.4 23:25:29 10° WSW 23:31:39 20° SW 23:31:39 20° SW visible
03 Oct 10.4 19:44:52 10° SSW 19:58:24 22° SSE 20:07:04 12° ESE visible
03 Oct 10.0 22:11:25 10° SW 22:24:17 26° S 22:24:21 26° S visible
04 Oct 10.9 00:41:29 10° WSW 00:41:37 10° WSW 00:41:37 10° WSW visible
04 Oct 10.1 20:57:39 10° SW 21:12:29 27° S 21:17:00 23° SSE visible
04 Oct 10.4 23:26:49 10° WSW 23:34:16 21° SW 23:34:16 21° SW visible
05 Oct 10.4 19:44:30 10° SSW 20:00:18 26° SSE 20:09:38 13° ESE visible
05 Oct 10.0 22:12:22 10° WSW 22:26:18 28° S 22:26:54 28° S visible
06 Oct 10.9 00:43:24 10° WSW 00:44:09 11° WSW 00:44:09 11° WSW visible
06 Oct 10.1 20:58:11 10° SW 21:14:26 30° S 21:19:30 25° SSE visible
06 Oct 10.4 23:28:16 10° WSW 23:36:46 22° SW 23:36:46 22° SW visible
07 Oct 10.4 19:44:34 10° SW 20:02:08 30° SSE 20:12:05 15° ESE visible
07 Oct 10.1 22:13:28 10° WSW 22:28:14 29° SSW 22:29:21 29° S visible
08 Oct 10.9 00:45:32 10° WSW 00:46:36 11° WSW 00:46:36 11° WSW visible
08 Oct 10.1 20:58:56 10° SW 21:16:19 32° S 21:21:54 26° SSE visible
08 Oct 10.4 23:29:48 10° WSW 23:39:10 22° SW 23:39:10 22° SW visible
09 Oct 10.4 19:44:57 10° SW 20:03:55 33° S 20:14:27 16° ESE visible
09 Oct 10.1 22:14:40 10° WSW 22:30:04 30° SSW 22:31:43 29° S visible
10 Oct 11.0 00:47:59 10° WSW 00:48:58 11° WSW 00:48:58 11° WSW visible
10 Oct 10.7 18:31:49 10° SSW 18:51:09 31° SSE 19:05:01 10° ESE visible
10 Oct 10.1 20:59:52 10° WSW 21:18:08 34° S 21:24:15 26° SSE visible
10 Oct 10.5 23:31:29 10° WSW 23:41:30 22° SW 23:41:30 22° SW visible
11 Oct 10.4 19:45:35 10° SW 20:05:38 35° S 20:16:46 16° SE visible
11 Oct 10.2 22:16:00 10° WSW 22:31:49 29° SSW 22:34:02 28° S visible
